Regional Weather Roundup
Issued by NWS

Home | Current Version | Previous Version | Text Only | Print | Product List | Glossary Off
Versions: 1 2 3 4 5 6 7 8 9 10 11 12 13 14 15 16 17 18 19 20 21 22 23 24 25 26 27 28 29 30 31 32 33 34 35 36 37 38 39 40 41 42 43 44 45 46 47 48 49 50

281
ASUS43 KOAX 231202
RWRNE

WEATHER ROUNDUP FOR NEBRASKA
NATIONAL WEATHER SERVICE OMAHA NE
700 AM CDT MON APR 23 2018

NOTES: SATELLITE DATA IS BEING USED TO AUGMENT CLOUD COVER ABOVE
       12000 FEET.
       "FAIR" INDICATES FEW OR NO CLOUDS BELOW 12,000 FEET WITH NO
       SIGNIFICANT WEATHER AND/OR OBSTRUCTIONS TO VISIBILITY.


NEZ001>004-019>022-054>056-231300-
NEBRASKA PANHANDLE

CITY           SKY/WX    TMP DP  RH WIND       PRES   REMARKS
SCOTTSBLUFF    CLEAR     34  34 100 E8        30.10R WCI  27
6HR MIN TEMP:  34; 6HR MAX TEMP:  42;

ALLIANCE       CLEAR     32  32 100 SE10      30.10S WCI  24
6HR MIN TEMP:  32; 6HR MAX TEMP:  40;

CHADRON        CLEAR     38  35  89 SE3       30.08F
6HR MIN TEMP:  35; 6HR MAX TEMP:  49;

GORDON         FAIR      32  30  92 CALM      30.11S
6HR MIN TEMP:  32; 6HR MAX TEMP:  43;

KIMBALL        CLEAR     31  31  99 CALM      30.10S
SIDNEY         CLEAR     34  32  92 S6        30.11S WCI  29
6HR MIN TEMP:  34; 6HR MAX TEMP:  37;

$$

NEZ057>060-069>072-079>082-231300-
SOUTHWEST NEBRASKA

CITY           SKY/WX    TMP DP  RH WIND       PRES   REMARKS
NORTH PLATTE   CLEAR     31  30  96 SE3       30.17R FOG
6HR MIN TEMP:  31; 6HR MAX TEMP:  40;

IMPERIAL       CLEAR     32  32 100 SE5       30.15S WCI  27
6HR MIN TEMP:  31; 6HR MAX TEMP:  41;

LEXINGTON      MOCLDY    38  36  91 NW3       30.18S FOG
MCCOOK         CLEAR     32  32 100 W7        30.17S FOG     WCI  26
6HR MIN TEMP:  32; 6HR MAX TEMP:  42;

OGALLALA       CLEAR     32  31  96 CALM      30.15S
$$

NEZ005>010-023>029-035>040-094-231300-
NORTH CENTRAL NEBRASKA

CITY           SKY/WX    TMP DP  RH WIND       PRES   REMARKS
VALENTINE      CLEAR     35  32  88 E3        30.15S
6HR MIN TEMP:  35; 6HR MAX TEMP:  47;

AINSWORTH      CLEAR     35  34  96 S6        30.17R WCI  30
BROKEN BOW     MOCLDY    35  32  88 CALM      30.17S
6HR MIN TEMP:  32; 6HR MAX TEMP:  38;

O`NEILL        CLEAR     44  36  74 S5        30.18S
ORD            CLEAR     32  30  92 CALM      30.18R
6HR MIN TEMP:  30; 6HR MAX TEMP:  39;

THEDFORD       FOG       35  34  96 CALM      30.17S VSB 3/4
$$

NEZ041-046>049-061>064-073>077-083>087-231300-
SOUTH CENTRAL NEBRASKA

CITY           SKY/WX    TMP DP  RH WIND       PRES   REMARKS
GRAND ISLAND   PTCLDY    39  35  86 NE6       30.19R WCI  35
6HR MIN TEMP:  38; 6HR MAX TEMP:  52;

AURORA         PTCLDY    41  29  63 E5        30.18R
HASTINGS       CLEAR     39  37  92 CALM      30.18R
6HR MIN TEMP:  38; 6HR MAX TEMP:  52;

HEBRON         CLEAR     37  35  89 CALM      30.18R
HOLDREGE       CLEAR     35  34  96 N3        30.18R
KEARNEY        CLEAR     38  35  89 CALM      30.19R
YORK             N/A     39  30  70 CALM      30.18S
$$

NEZ011>018-030>034-042>045-231300-
NORTHEAST NEBRASKA

CITY           SKY/WX    TMP DP  RH WIND       PRES   REMARKS
NORFOLK        CLEAR     34  31  88 CALM      30.19R
6HR MIN TEMP:  34; 6HR MAX TEMP:  47;

ALBION         CLEAR     38  32  80 NW5       30.19S WCI  34
BLAIR          CLEAR     42  30  64 N8        30.19R
COLUMBUS       CLEAR     35  29  78 CALM      30.20R
FREMONT        CLEAR     38  31  74 CALM      30.19S
TEKAMAH        CLEAR     33  32  96 N7        30.20R FOG     WCI  27
6HR MIN TEMP:  33; 6HR MAX TEMP:  41;

WAYNE          CLEAR     30  29  96 CALM      30.20R
$$

NEZ050>053-065>068-078-088>093-231300-
SOUTHEAST NEBRASKA

CITY           SKY/WX    TMP DP  RH WIND       PRES   REMARKS
LINCOLN        PTCLDY    36  30  79 N5        30.19R WCI  32
6HR MIN TEMP:  34; 6HR MAX TEMP:  48;

OMAHA EPPLEY   PTCLDY    38  30  73 N9        30.19R WCI  31
6HR MIN TEMP:  36; 6HR MAX TEMP:  54;

BEATRICE       PTCLDY    35  32  88 CALM      30.17S
FALLS CITY     CLEAR     43  30  60 NW6       30.15R
6HR MIN TEMP:  42; 6HR MAX TEMP:  51;

NEBRASKA CITY  CLEAR     44  30  57 N5        30.17R
PLATTSMOUTH    CLEAR     43  27  54 N3        30.18R
$$

NEZ044-045-051>053-067-231300-
OMAHA AREA

CITY           SKY/WX    TMP DP  RH WIND       PRES   REMARKS
OMAHA EPPLEY   PTCLDY    38  30  73 N9        30.19R WCI  31
6HR MIN TEMP:  36; 6HR MAX TEMP:  54;

BLAIR          CLEAR     42  30  64 N8        30.19R
FREMONT        CLEAR     38  31  74 CALM      30.19S
MILLARD        CLEAR     42  32  68 NW3       30.18S
OFFUTT AFB     CLEAR     38  29  71 CALM      30.17R
PLATTSMOUTH    CLEAR     43  27  54 N3        30.18R
WAHOO          FAIR      36  27  69 NW3       30.19R
$$




USA.gov is the U.S. government's official web portal to all federal, state and local government web resources and services.